This demonstration page uses our WeatherBlox Daily Observations layout. Learn more.

Left ArrowRight Arrow

39.51506, -84.39828

Hourly Observations for July 10, 2015

Temp ( °F °C ) Dew Point ( °F °C ) Humidity (%) Winds ( mph kmh ) Pressure ( in mb ) Visibility ( mi km ) Precip ( " mm )
12:15 am 00:15 undefined N/A N/A N/A undefined N/A N/A N/A N/A
12:35 am 00:35 undefined N/A N/A N/A undefined N/A N/A N/A N/A
12:55 am 00:55 undefined N/A N/A N/A undefined N/A N/A N/A N/A
1:15 am 01:15 undefined N/A N/A N/A undefined N/A N/A N/A N/A
1:35 am 01:35 undefined N/A N/A N/A undefined N/A N/A N/A N/A
1:55 am 01:55 undefined N/A N/A N/A undefined N/A N/A N/A N/A
2:15 am 02:15 undefined N/A N/A N/A undefined N/A N/A N/A N/A
2:35 am 02:35 undefined N/A N/A N/A undefined N/A N/A N/A N/A
2:55 am 02:55 undefined N/A N/A N/A undefined N/A N/A N/A N/A
3:15 am 03:15 undefined N/A N/A N/A undefined N/A N/A N/A N/A
3:35 am 03:35 undefined N/A N/A N/A undefined N/A N/A N/A N/A
3:55 am 03:55 undefined N/A N/A N/A undefined N/A N/A N/A N/A
4:15 am 04:15 undefined N/A N/A N/A undefined N/A N/A N/A N/A
4:35 am 04:35 undefined N/A N/A N/A undefined N/A N/A N/A N/A
4:55 am 04:55 undefined N/A N/A N/A undefined N/A N/A N/A N/A
5:15 am 05:15 undefined N/A N/A N/A undefined N/A N/A N/A N/A
5:35 am 05:35 undefined N/A N/A N/A undefined N/A N/A N/A N/A
5:55 am 05:55 undefined N/A N/A N/A undefined N/A N/A N/A N/A
6:15 am 06:15 undefined N/A N/A N/A undefined N/A N/A N/A N/A
6:35 am 06:35 undefined N/A N/A N/A undefined N/A N/A N/A N/A
6:55 am 06:55 undefined N/A N/A N/A undefined N/A N/A N/A N/A
7:15 am 07:15 undefined N/A N/A N/A undefined N/A N/A N/A N/A
7:35 am 07:35 undefined N/A N/A N/A undefined N/A N/A N/A N/A
7:55 am 07:55 undefined N/A N/A N/A undefined N/A N/A N/A N/A
8:15 am 08:15 undefined 69 20.8 65 18.6 87 87 N N/A 30.09 1019 N/A N/A
8:35 am 08:35 Cloudy with Heavy Rain 69 20.8 65 18.5 87 87 N N/A 30.12 1020 1 1 N/A
8:55 am 08:55 undefined N/A N/A N/A undefined N/A N/A N/A N/A
9:15 am 09:15 undefined 71 21.6 66 18.8 84 84 N N/A 30.12 1020 N/A N/A
9:35 am 09:35 undefined N/A N/A N/A undefined N/A N/A N/A N/A
9:55 am 09:55 Partly Cloudy with Heavy Rain 74 23.6 68 19.9 80 80 N N/A 30.12 1020 5 8 N/A
10:15 am 10:15 Partly Cloudy 74 23.6 67 19.5 78 78 N N/A 30.12 1020 10 16 N/A
10:35 am 10:35 Partly Cloudy 74 23.6 66 19.1 76 76 S 3 6 30.12 1020 10 16 N/A
10:55 am 10:55 Mostly Cloudy 74 23.6 65 18.2 72 72 SW 3 6 30.12 1020 10 16 N/A
11:15 am 11:15 Mostly Cloudy 74 23.6 63 17.4 68 68 W 3 6 30.12 1020 10 16 N/A
11:35 am 11:35 Partly Cloudy 74 23.6 64 17.9 70 70 WNW 3 6 30.12 1020 10 16 N/A
11:55 am 11:55 Mostly Cloudy 74 23.6 63 17 67 67 N N/A 30.12 1020 10 16 N/A
12:15 pm 12:15 Mostly Cloudy 74 23.6 62 16.9 66 66 N N/A 30.12 1020 10 16 N/A
12:35 pm 12:35 Mostly Cloudy with Drizzle 74 23.6 62 16.9 66 66 N N/A 30.12 1020 10 16 N/A
1:00 pm 13:00 Cloudy with Rain 74 23.6 65 18.6 74 74 SW 3 6 30.12 1020 10 16 N/A
1:15 pm 13:15 Cloudy with Drizzle 74 23.6 65 18.5 73 73 WSW 5 7 30.12 1020 10 16 N/A
1:35 pm 13:35 Cloudy with Drizzle 74 23.6 66 18.8 75 75 N N/A 30.12 1020 10 16 N/A
1:55 pm 13:55 Mostly Cloudy with Drizzle 74 23.6 65 18.2 72 72 N N/A 30.09 1019 10 16 N/A
2:15 pm 14:15 Mostly Cloudy 74 23.6 65 18.1 71 71 N N/A 30.09 1019 10 16 N/A
2:35 pm 14:35 Mostly Cloudy 74 23.6 64 17.9 70 70 NNE 3 6 30.09 1019 10 16 N/A
2:55 pm 14:55 Mostly Cloudy 74 23.6 64 17.6 69 69 N N/A 30.09 1019 10 16 N/A
3:20 pm 15:20 Cloudy with Drizzle 74 23.6 64 17.5 69 69 N N/A 30.09 1019 10 16 N/A
3:35 pm 15:35 Cloudy with Drizzle 74 23.6 64 17.8 70 70 N N/A 30.09 1019 10 16 N/A
3:55 pm 15:55 Cloudy with Drizzle 74 23.6 65 18.3 72 72 NW 3 6 30.09 1019 10 16 N/A
4:15 pm 16:15 Cloudy with Light Rain 74 23.6 68 19.8 79 79 WNW 6 9 30.09 1019 10 16 N/A
4:35 pm 16:35 Cloudy with Rain 72 22.4 67 19.6 84 84 N 3 6 30.09 1019 3 5 N/A
4:55 pm 16:55 Cloudy with Light Rain 74 23.5 67 19.5 78 78 NE 3 6 30.09 1019 10 16 N/A
5:15 pm 17:15 Cloudy 74 23.6 68 20.1 81 81 SSW 7 11 30.09 1019 10 16 N/A
5:35 pm 17:35 Mostly Cloudy 69 20.8 64 18 84 84 SW 9 15 30.09 1019 10 16 N/A
6:00 pm 18:00 Cloudy 69 20.8 65 18.1 85 85 SW 5 7 30.09 1019 10 16 N/A
6:15 pm 18:15 Cloudy with Drizzle 69 20.8 65 18.1 85 85 SSW 3 6 30.09 1019 10 16 N/A
6:35 pm 18:35 Mostly Cloudy 69 20.8 65 18.4 86 86 SW 3 6 30.09 1019 10 16 N/A
6:55 pm 18:55 Partly Cloudy 69 20.8 65 18.5 87 87 S 3 6 30.06 1018 10 16 N/A
7:15 pm 19:15 Partly Cloudy 70 21.1 65 18.6 86 86 N N/A 30.06 1018 10 16 N/A
7:35 pm 19:35 Sunny 71 21.9 67 19.2 85 85 N N/A 30.09 1019 10 16 N/A
7:55 pm 19:55 Sunny 73 22.6 67 19.7 84 84 N N/A 30.06 1018 10 16 N/A
8:15 pm 20:15 Sunny 74 23.3 69 20.3 83 83 N N/A 30.06 1018 10 16 N/A
8:35 pm 20:35 Sunny 70 21.2 66 18.8 86 86 W 5 7 30.09 1019 10 16 N/A
8:55 pm 20:55 Sunny 69 20.8 66 18.7 88 88 W 3 6 30.09 1019 7 11 N/A
9:15 pm 21:15 Clear 69 20.8 66 18.9 89 89 N N/A 30.09 1019 7 11 N/A
9:35 pm 21:35 Clear 69 20.8 66 19 90 90 N N/A 30.09 1019 7 11 N/A
9:55 pm 21:55 Partly Cloudy 69 20.8 66 19 90 90 N N/A 30.09 1019 7 11 N/A
10:15 pm 22:15 Cloudy 69 20.8 66 19 90 90 N N/A 30.09 1019 7 11 N/A
10:35 pm 22:35 Partly Cloudy 69 20.8 66 18.9 89 89 N N/A 30.12 1020 7 11 N/A
10:55 pm 22:55 Partly Cloudy with Mist and Fog 69 20.8 66 19 90 90 N N/A 30.12 1020 3 5 N/A
11:15 pm 23:15 Clear with Mist and Fog 69 20.8 66 19.1 90 90 N N/A 30.12 1020 3 5 N/A
11:35 pm 23:35 Mostly Cloudy with Mist and Fog 69 20.8 67 19.2 91 91 N N/A 30.12 1020 1 1 N/A
11:55 pm 23:55 Mostly Cloudy with Mist and Fog 67 19.5 64 18 91 91 N N/A 30.12 1020 1 1 N/A

Powered by AerisWeather